Terminal Aerodrome Forecast
Issued by NWS

Home | Current Version | Previous Version | Text Only | Print | Product List | Glossary On
Versions: 1 2 3 4 5 6 7 8 9 10 11 12 13 14 15 16 17 18 19 20 21
000
FTUS41 KCAR 231559 AAB
TAFPQI
TAF AMD
KPQI 231559Z 2316/2412 28018G29KT P6SM BKN040
     FM232200 28014G23KT P6SM SCT050
     FM240000 26006KT P6SM SCT250
     FM241100 23010G17KT P6SM BKN090
      AMD LTD TO CLD VIS AND WIND=

USA.gov is the U.S. government's official web portal to all federal, state and local government web resources and services.